Flag for Switzerland Weather past 2 weeks in Küssnacht, Schwyz, Switzerland

Now
68 °F

Passing clouds.


Feels Like: 68 °F
Forecast: 36 / 53 °F
Wind: 7 mph from Northwest

Location: Altdorf

Current Time: Aug 22, 2014 at 5:58:49 PM

Latest Report: Aug 22, 2014 at 5:00 PM


Visibility: 19 mi

Pressure: 29.93 "Hg

Humidity: 56%

Dew point: 51 °F

Location of KüssnachtLocation

Historic Weather in Küssnacht — Graph

°F

Küssnacht temperature yesterday

Maximum temperature yesterday: 67 °F (at 3:00 PM)
Minimum temperature yesterday: 52 °F (at 5:00 AM)
Average temperature yesterday: 59 °F

Past Weeks' High & Low Weather Summary

 TemperatureHumidityPressure
High86 °F (Aug 10, 3:00 PM)96% (Aug 8, 7:00 AM)30.22 "Hg (Aug 8, 7:00 AM)
Low46 °F (Aug 17, 6:00 AM)36% (Aug 10, 3:00 PM)29.64 "Hg (Aug 13, 10:00 AM)
Average63 °F77%29.97 "Hg
* Reported Aug 7 4:00 PM — Aug 22 4:00 PM, Küssnacht, Weather by CustomWeather, © 2014

Note: Actual official high and low records may vary slightly from our data, if they occured in-between our weather recording intervals... More about our weather records

Advertising

Küssnacht weather history for previous 24 hours

 ConditionsComfort  
Time TempWeatherWind HumidityBarometerVisibility
4:00 PM
Aug 22
69 °FMild.13 mph55%29.92 "HgN/A
3:00 PM68 °FMild.14 mph54%29.93 "HgN/A
2:00 PM68 °FScattered clouds.13 mph53%29.94 "Hg16 mi
1:00 PM67 °FMild.7 mph55%29.96 "HgN/A
12:00 PM65 °FMild.6 mph64%29.98 "HgN/A
11:00 AM63 °FPartly sunny.5 mph74%30.00 "Hg12 mi
10:00 AM60 °FCool.1 mph75%30.02 "HgN/A
9:00 AM58 °FCool.2 mph78%30.03 "HgN/A
8:00 AM56 °FOvercast.2 mph86%30.03 "Hg11 mi
7:00 AM56 °FCool.2 mph89%30.03 "HgN/A
6:00 AM56 °FCool.2 mph90%30.03 "HgN/A
5:00 AM56 °FOvercast.No wind88%30.03 "Hg10 mi
4:00 AM56 °FCool.No wind87%30.03 "HgN/A
3:00 AM57 °FCool.2 mph84%30.03 "HgN/A
2:00 AM58 °FOvercast.No wind83%30.03 "Hg11 mi
1:00 AM58 °FCool.1 mph86%30.03 "HgN/A
12:00 AM58 °FCool.1 mph83%30.03 "HgN/A
11:00 PM
Aug 21
59 °FOvercast.No wind81%30.03 "Hg9 mi
10:00 PM60 °FCool.1 mph77%30.02 "HgN/A
9:00 PM60 °FCool.1 mph80%30.01 "HgN/A
8:00 PM61 °FOvercast.1 mph80%30.00 "Hg11 mi
7:00 PM64 °FMild.2 mph62%29.98 "HgN/A
6:00 PM64 °FMild.7 mph63%29.98 "HgN/A
5:00 PM65 °FPartly sunny.13 mph55%29.98 "Hg12 mi
Weather by CustomWeather, © 2014

See weather overviewHow to use our weather pages